📊 Raw Sensor Data

Showing records 52401 to 52425 of 85,282 total

ID Distance (ft) Battery V Battery A Int Temp (°F) Int Humid (%) Ext Temp (°F) Solar V RSSI SNR Time Stamp
32894 13.8 3.79 -5 48 38 50 0.00 -82 7 02/20/2025 04:45 AM
32893 13.7 3.84 -5 49 38 50 0.00 -82 7 02/20/2025 04:30 AM
32892 13.7 3.79 -5 49 38 50 0.00 -79 7 02/20/2025 04:15 AM
32891 13.7 3.80 -5 49 38 50 0.00 -81 8 02/20/2025 04:00 AM
32890 13.6 3.80 -5 49 38 50 0.00 -79 7 02/20/2025 03:45 AM
32889 13.7 3.80 -5 49 38 50 0.00 -78 6 02/20/2025 03:30 AM
32888 13.7 3.80 -5 50 38 50 0.00 -80 5 02/20/2025 03:15 AM
32887 13.7 3.80 -5 50 38 50 0.00 -80 7 02/20/2025 03:00 AM
32886 13.7 3.80 -5 49 37 50 0.00 -81 7 02/20/2025 02:45 AM
32885 13.7 3.80 -5 49 38 50 0.00 -80 6 02/20/2025 02:30 AM
32884 13.6 3.80 -5 48 38 50 0.00 -81 7 02/20/2025 02:15 AM
32883 13.4 3.80 -5 48 38 49 0.00 -80 7 02/20/2025 02:00 AM
32882 13.6 3.85 -5 47 38 49 0.00 -83 7 02/20/2025 01:45 AM
32881 13.6 3.80 -5 46 38 48 0.00 -82 7 02/20/2025 01:30 AM
32880 13.6 3.80 -5 46 38 47 0.00 -81 7 02/20/2025 01:15 AM
32879 13.6 3.80 -5 47 38 48 0.00 -81 7 02/20/2025 01:00 AM
32878 13.6 3.80 -5 47 38 48 0.00 -80 7 02/20/2025 12:45 AM
32877 13.6 3.85 -5 47 38 49 0.00 -81 6 02/20/2025 12:30 AM
32876 13.6 3.80 -5 47 38 48 0.00 -80 7 02/20/2025 12:15 AM
32875 13.6 3.85 -5 47 38 48 0.00 -79 8 02/20/2025 12:00 AM
32874 13.6 3.80 -5 48 38 49 0.00 -81 6 02/19/2025 11:45 PM
32873 13.6 3.85 -5 48 38 49 0.10 -81 6 02/19/2025 11:30 PM
32872 13.6 3.80 -5 48 38 49 0.00 -79 7 02/19/2025 11:15 PM
32871 13.5 3.85 -5 47 38 49 0.00 -81 5 02/19/2025 11:00 PM
32870 13.5 3.80 -5 47 38 48 0.00 -80 6 02/19/2025 10:45 PM